Regional Weather Roundup
Issued by NWS Sterling, VA

Home | Current Version | Previous Version | Graphics & Text | Print | Product List | Glossary On
Versions: 1 2 3 4 5 6 7 8 9 10 11 12 13 14 15 16 17 18 19 20 21 22 23 24 25 26 27
000
ASUS41 KLWX 261011
RWRLWX

REGIONAL WEATHER ROUNDUP
NATIONAL WEATHER SERVICE BALTIMORE MD/WASHINGTON DC
500 AM EST SUN FEB 26 2017

Note: "FAIR" indicates few or no clouds below 12,000 feet
with no significant weather and/or obstructions to visibility.
 TC=TEMPERATURE CELSIUS

 * =Non NWS site. Station does not report precipitation (e.g. rain,
    snow, etc.), thunder, or fog.

DCZ001-MDZ009-015-VAZ040>042-051-053>054-261100-
WASHINGTON METRO

CITY           SKY/WX    TMP DP  RH WIND       PRES   REMARKS
WASHINGTON NAT PTCLDY    37  18  46 NW9       30.00R
DULLES         PTCLDY    33  16  49 NW14G22   29.99R WCI  23
ANDREWS AFB    MOCLDY    36  19  49 W12       29.97R WCI  28
FT BELVOIR     CLEAR     36  16  44 NW8       30.01R
QUANTICO       CLEAR     36  19  50 N9        30.02R WCI  29
COLLEGE PARK*  CLOUDY    36  19  51 W12       29.98R WCI  27
LEESBURG*      CLOUDY    34  21  60 MISG      30.01R
MANASSAS*      CLEAR     34  16  47 NW16      30.01R WCI  24
GAITHERSBURG*  CLOUDY    34  18  51 NW13G18   30.00R WCI  25

$$

MDZ006>007-011-014-261100-
BALTIMORE METRO

CITY           SKY/WX    TMP DP  RH WIND       PRES   REMARKS
BWI AIRPORT    MOCLDY    36  22  56 NW12      29.96R WCI  28
MD SCIENCE CTR   N/A     38  18  44 MISG      29.96R
MARTIN STATE   CLOUDY    36  23  60 W18       29.99R WCI  25
ANNAPOLIS      CLOUDY    39  22  50 W8        29.96R
FORT MEADE*    PTCLDY    34  21  60 NW14G22   30.00R WCI  24

$$

MDZ012-015-019>023-261100-
MARYLAND EASTERN SHORE

CITY           SKY/WX    TMP DP  RH WIND       PRES   REMARKS
OCEAN CITY     CLEAR     40  24  53 NW13      29.92R
SALISBURY      CLEAR     38  27  64 NW10      29.93R
BAY BRIDGE AP* CLOUDY    39  25  56 NW15      29.97R
CAMBRIDGE*     CLEAR     39  21  48 NW10G22   29.96R
EASTON*        PTCLDY    39  22  50 NW8G16    30.00R

$$

MDZ017>025-261100-
SOUTHERN MARYLAND

CITY           SKY/WX    TMP DP  RH WIND       PRES   REMARKS
PATUXENT RIVER CLEAR     39  25  57 N14G23    29.96R
ST INIGOES     CLEAR     40  24  53 NW10      29.95R
LEONARDTOWN*   CLEAR     36  23  60 NW8       29.98R

$$

MDZ003>005-261100-
NORTH CENTRAL MARYLAND

CITY           SKY/WX    TMP DP  RH WIND       PRES   REMARKS
FREDERICK*     CLOUDY    34  21  60 NW13G24   30.02R WCI  25
HAGERSTOWN APT CLOUDY    33  17  51 NW16      29.98R WCI  23
WESTMINSTER*   MOCLDY    34  19  55 W16G25    29.95R WCI  23

$$

MDZ501>502-261100-
WESTERN MARYLAND

CITY           SKY/WX    TMP DP  RH WIND       PRES   REMARKS
OAKLAND*       CLOUDY    19  16  86 W10G17    29.90R FOG     WCI   8
CUMBERLAND*    CLOUDY    32  14  47 W5        30.07R

$$

VAZ025>031-261100-
SHENANDOAH VALLEY

CITY           SKY/WX    TMP DP  RH WIND       PRES   REMARKS
WINCHESTER*    CLOUDY    32  14  47 W14G22    30.00R WCI  22
FRONT ROYAL*   PTCLDY    32  16  51 W12G17    29.99R WCI  23
LURAY*         CLOUDY    34  21  60 NW7       29.99R
NEW MARKET*    MOCLDY    32  13  46 N3        30.00R
STAUNTON*      CLEAR     29  15  55 NW6       30.01R
WAYNESBORO*    PTCLDY    30  15  55 CALM      29.98R

$$

WVZ021-048>050-054>055-261100-
EASTERN WEST VIRGINIA PANHANDLE

CITY           SKY/WX    TMP DP  RH WIND       PRES   REMARKS
MARTINSBURG    CLOUDY    32  13  45 W13       30.00R WCI  22
PETERSBURG*    CLOUDY    33  15  48 NW3       30.02R

$$

VAZ036>039-050-261100-
CENTRAL FOOTHILLS

CITY           SKY/WX    TMP DP  RH WIND       PRES   REMARKS
CHARLOTTESVILL CLEAR     35  17  47 NW5       30.00R
CULPEPER*      PTCLDY    33  20  60 N5        30.02R
ORANGE*        CLEAR     34  18  51 W12       30.01R WCI  25
GORDONSVILLE*  CLEAR     35  18  49 CALM      30.00R
WARRENTON*     CLEAR     34  15  46 NW7       30.00R

$$

VAZ055>057-261100-
NORTH AND CENTRAL PIEDMONT

CITY           SKY/WX    TMP DP  RH WIND       PRES   REMARKS
FREDERICKSBRG* CLEAR     37  24  60 N6        30.00R
STAFFORD*      CLEAR     33  22  61 NW9       30.04R WCI  26

$$

NCZ024-NYZ072-PAZ021-071-VAZ022-071-261100-
OTHER REGIONAL OBSERVATIONS

CITY           SKY/WX    TMP DP  RH WIND       PRES   REMARKS
NEW YORK CITY  MOCLDY    38  20  48 NW15G23   29.83R
PHILADELPHIA   MOCLDY    39  21  48 W12G21    29.91R
PITTSBURGH     FLURRIES  27  20  75 SW6       30.00R
ROANOKE        PTCLDY    32  16  51 NW14      30.04R WCI  22
RICHMOND       CLEAR     38  24  57 N6        29.99R
RALEIGH        CLEAR     40  17  39 NW3       30.04R

$$

ANZ530>537-261100-
MARINE OBSERVATIONS

STATION/POSITION TIME  TEMP    WIND        PRES
                       AIR SEA DIR/SP/G
                 (UTC) (F)     (DEG/KT/KT) (MB)
THOMAS PT LIGHT  1000   39 44  300/ 15/ 19   N/A
BALT KEY BRIDGE  0948   38     310/ 18/ 22 1014.4R
COVE POINT       0948   38     350/ 20/ 24 1015.1R
LEWISETTA        0948   42 51  340/ 16/ 20 1014.2R
SOLOMONS ISLAND  0948   40 44  330/ 10/ 13   N/A
PINEY POINT      0948          360/ 21/ 24   N/A

$$





USA.gov is the U.S. government's official web portal to all federal, state and local government web resources and services.